Tracking 28790 objects as of 19-Apr-2024
HD Live streaming from Space Station
objects crossing your sky now

SL-16 DEB

Track SL-16 DEB now!
10-day predictions


NORAD ID: 39881
Int'l Code: 1993-016BF
Perigee: 798.8 km
Apogee: 980.3 km
Inclination: 71.0 °
Period: 102.6 minutes
Semi major axis: 7260 km
RCS: 0.0064 m2 (small)
Launch date: March 26, 1993
Source: Commonwealth of Independent States (former USSR) (CIS)
Launch site: TYURATAM MISSILE AND SPACE COMPLEX (TTMTR)

Note: This is SATELLITE DEBRIS
Your satellite tracking list
Your tracking list is empty




NASA's NSSDC Master Catalog

Two Line Element Set (TLE):
1 39881U 93016BF  24109.23262394  .00006731  00000-0  40474-2 0  9993
2 39881  70.9948  66.9315 0125015  88.3220 273.2211 14.03285525486422
Source of the keplerian elements: AFSPC